Ravenna, OH

7:33 AM EDT on June 26, 2017 (GMT -0400)
Ravenna

Weather History for KPOV - February, 2014

Change the Weather History Date:

Monday, February 10, 2014

  Actual Average (KCAK) Record (KCAK)
Temperature  
Mean Temperature 13 °F -  
Max Temperature 19 °F 33 °F 63 °F (1932)
Min Temperature 7 °F 15 °F -20 °F (1899)
Degree Days  
Heating Degree Days 52    
Moisture  
Dew Point 7 °F    
Average Humidity 75    
Maximum Humidity 89    
Minimum Humidity 53    
Precipitation  
Precipitation 0.00 in - - ()
Sea Level Pressure  
Sea Level Pressure 30.21 in    
Wind  
Wind Speed 5 mph (West)    
Max Wind Speed 9 mph    
Max Gust Speed -    
Visibility 8 miles    
Events Snow    
Averages and records for this station are not official NWS values.
T = Trace of Precipitation, MM = Missing Value Source: NWS Daily Summary

Daily Weather History Graph

Daily Weather History Graph

Search for Another Location

Airport or City:

Trip Planner

Search our weather history database for the weather conditions in past years. The results will help you decide how hot, cold, wet, or windy it might be!

Date:

Astronomy

Feb. 10, 2014 Rise Set
Actual Time 7:26 AM EST 5:52 PM EST
Civil Twilight 6:57 AM EST 6:21 PM EST
Nautical Twilight 6:24 AM EST 6:54 PM EST
Astronomical Twilight 5:52 AM EST 7:26 PM EST
Moon 2:19 PM EST (2/10) 4:19 AM EST (2/10)
Length of Visible Light 11h 24m
Length of Day
10h 26m
Waxing Gibbous, 84% of the Moon is Illuminated
Feb 10
Waxing Gibbous
Feb 14
Full
Feb 22
Last Quarter
Mar 1
New
Mar 8
First Quarter

Hourly Weather History & Observations

Time (EST) Temp. Windchill Dew Point Humidity Pressure Visibility Wind Dir Wind Speed Gust Speed Precip Events Conditions
12:16 AM 15.8 °F 6.1 °F 11.3 °F 82% 30.12 in 7.0 mi WSW 6.9 mph - N/A Snow Light Snow
12:36 AM 15.8 °F 8.6 °F 11.5 °F 83% 30.12 in 10.0 mi WSW 4.6 mph - N/A Snow Light Snow
12:56 AM 15.4 °F 8.1 °F 11.3 °F 84% 30.12 in 10.0 mi WSW 4.6 mph - N/A Snow Light Snow
1:16 AM 15.3 °F 7.9 °F 11.3 °F 84% 30.12 in 7.0 mi WSW 4.6 mph - N/A Snow Light Snow
1:36 AM 15.3 °F 7.9 °F 11.3 °F 84% 30.12 in 5.0 mi WSW 4.6 mph - N/A Snow Light Snow
1:56 AM 15.1 °F 6.4 °F 11.3 °F 85% 30.12 in 5.0 mi WSW 5.8 mph - N/A Snow Light Snow
2:16 AM 14.9 °F 6.1 °F 11.1 °F 85% 30.12 in 5.0 mi WSW 5.8 mph - N/A Snow Light Snow
2:36 AM 14.9 °F 5.0 °F 11.1 °F 85% 30.12 in 7.0 mi WSW 6.9 mph - N/A Snow Light Snow
2:56 AM 14.9 °F 5.0 °F 10.6 °F 83% 30.13 in 10.0 mi WSW 6.9 mph - N/A   Overcast
3:16 AM 14.7 °F 4.8 °F 10.2 °F 82% 30.13 in 10.0 mi West 6.9 mph - N/A Snow Light Snow
3:36 AM 14.0 °F 3.9 °F 9.3 °F 82% 30.12 in 10.0 mi WSW 6.9 mph - N/A   Overcast
3:56 AM 13.6 °F 2.5 °F 9.3 °F 83% 30.13 in 7.0 mi West 8.1 mph - N/A Snow Light Snow
4:16 AM 13.1 °F 5.4 °F 9.0 °F 84% 30.13 in 10.0 mi West 4.6 mph - N/A Snow Light Snow
4:36 AM 12.6 °F 4.8 °F 8.6 °F 84% 30.13 in 5.0 mi WSW 4.6 mph - N/A Snow Light Snow
4:56 AM 12.2 °F 6.1 °F 8.4 °F 85% 30.13 in 5.0 mi West 3.5 mph - N/A Snow Light Snow
5:16 AM 11.1 °F 4.9 °F 7.7 °F 86% 30.13 in 10.0 mi West 3.5 mph - N/A Snow Light Snow
5:36 AM 8.4 °F - 5.4 °F 87% 30.14 in 10.0 mi Calm Calm - N/A   Scattered Clouds
5:56 AM 9.0 °F - 6.3 °F 89% 30.14 in 10.0 mi Calm Calm - N/A   Mostly Cloudy
6:16 AM 9.5 °F - 6.8 °F 89% 30.14 in 7.0 mi Calm Calm - N/A Snow Light Snow
6:36 AM 10.8 °F 4.5 °F 8.1 °F 89% 30.15 in 7.0 mi WSW 3.5 mph - N/A Snow Light Snow
6:56 AM 10.8 °F - 7.7 °F 87% 30.16 in 7.0 mi Calm Calm - N/A Snow Light Snow
7:16 AM 10.8 °F 4.5 °F 7.7 °F 87% 30.17 in 7.0 mi SW 3.5 mph - N/A Snow Light Snow
7:36 AM 10.8 °F - 7.9 °F 88% 30.18 in 5.0 mi Calm Calm - N/A Snow Light Snow
7:56 AM 10.8 °F 4.5 °F 7.9 °F 88% 30.19 in 5.0 mi WSW 3.5 mph - N/A Snow Light Snow
8:16 AM 10.9 °F 2.9 °F 8.2 °F 89% 30.20 in 5.0 mi WSW 4.6 mph - N/A Snow Light Snow
8:36 AM 11.3 °F -0.4 °F 8.4 °F 88% 30.20 in 4.0 mi West 8.1 mph - N/A Snow Light Snow
8:56 AM 11.3 °F -1.3 °F 8.2 °F 87% 30.21 in 5.0 mi West 9.2 mph - N/A Snow Light Snow
9:16 AM 11.7 °F 2.3 °F 8.1 °F 85% 30.21 in 1.8 mi West 5.8 mph - N/A Snow Light Snow
9:36 AM 12.7 °F 5.0 °F 7.7 °F 80% 30.22 in 1.5 mi WSW 4.6 mph - N/A Snow Light Snow
9:56 AM 13.6 °F 7.7 °F 8.1 °F 78% 30.22 in 5.0 mi West 3.5 mph - N/A Snow Light Snow
10:16 AM 13.6 °F 4.6 °F 8.2 °F 79% 30.23 in 5.0 mi West 5.8 mph - N/A Snow Light Snow
10:36 AM 14.4 °F 4.3 °F 8.1 °F 76% 30.23 in 3.0 mi West 6.9 mph - N/A Snow Light Snow
10:56 AM 14.7 °F 4.8 °F 7.9 °F 74% 30.23 in 4.0 mi West 6.9 mph - N/A Snow Light Snow
11:16 AM 15.1 °F 6.4 °F 7.9 °F 73% 30.24 in 3.0 mi West 5.8 mph - N/A Snow Light Snow
11:36 AM 16.9 °F 7.4 °F 8.2 °F 69% 30.24 in 10.0 mi West 6.9 mph - N/A Snow Light Snow
11:56 AM 17.8 °F 7.5 °F 8.2 °F 66% 30.24 in 10.0 mi West 8.1 mph - N/A Snow Light Snow
12:16 PM 18.3 °F 10.2 °F 8.6 °F 66% 30.23 in 10.0 mi WNW 5.8 mph - N/A   Overcast
12:36 PM 17.4 °F 12.1 °F 8.4 °F 68% 30.23 in 10.0 mi WNW 3.5 mph - N/A   Overcast
12:56 PM 17.8 °F 12.5 °F 8.2 °F 66% 30.22 in 10.0 mi NW 3.5 mph - N/A Snow Light Snow
1:16 PM 18.1 °F 11.3 °F 7.5 °F 63% 30.22 in 10.0 mi WNW 4.6 mph - N/A   Overcast
1:36 PM 18.0 °F 7.7 °F 6.3 °F 60% 30.21 in 10.0 mi WNW 8.1 mph - N/A   Overcast
1:56 PM 18.3 °F 11.5 °F 6.1 °F 59% 30.21 in 10.0 mi WNW 4.6 mph - N/A   Overcast
2:16 PM 18.3 °F 9.1 °F 5.5 °F 57% 30.21 in 10.0 mi WNW 6.9 mph - N/A   Overcast
2:36 PM 19.4 °F 11.5 °F 6.3 °F 57% 30.21 in 10.0 mi NW 5.8 mph - N/A   Overcast
2:56 PM 19.4 °F 8.6 °F 6.4 °F 57% 30.21 in 10.0 mi WSW 9.2 mph - N/A   Overcast
3:16 PM 19.6 °F 8.9 °F 5.0 °F 53% 30.21 in 10.0 mi West 9.2 mph - N/A   Overcast
3:36 PM 18.0 °F 9.8 °F 6.6 °F 61% 30.22 in 10.0 mi West 5.8 mph - N/A   Overcast
3:55 PM 17.6 °F 8.2 °F 7.5 °F 65% 30.22 in 10.0 mi West 6.9 mph - N/A   Mostly Cloudy
4:16 PM 17.6 °F 9.3 °F 7.3 °F 64% 30.23 in 10.0 mi West 5.8 mph - N/A   Overcast
4:36 PM 17.8 °F 9.6 °F 7.0 °F 63% 30.23 in 10.0 mi WNW 5.8 mph - N/A   Overcast
4:56 PM 17.6 °F 10.7 °F 7.7 °F 65% 30.24 in 5.0 mi WNW 4.6 mph - N/A   Haze
5:16 PM 17.6 °F 10.7 °F 7.7 °F 65% 30.24 in 10.0 mi WNW 4.6 mph - N/A   Overcast
5:36 PM 17.6 °F 9.3 °F 7.0 °F 63% 30.24 in 10.0 mi West 5.8 mph - N/A   Overcast
5:56 PM 17.4 °F 9.1 °F 6.8 °F 63% 30.25 in 10.0 mi West 5.8 mph - N/A   Overcast
6:16 PM 17.2 °F 6.0 °F 6.6 °F 63% 30.25 in 10.0 mi WSW 9.2 mph - N/A   Overcast
6:36 PM 16.7 °F 6.2 °F 6.4 °F 64% 30.25 in 10.0 mi West 8.1 mph - N/A   Overcast
6:56 PM 16.2 °F 5.5 °F 5.9 °F 64% 30.27 in 10.0 mi WSW 8.1 mph - N/A   Overcast
7:16 PM 15.6 °F 7.0 °F 5.5 °F 64% 30.27 in 10.0 mi West 5.8 mph - N/A   Overcast
7:36 PM 15.8 °F 7.2 °F 5.9 °F 65% 30.27 in 10.0 mi West 5.8 mph - N/A Snow Light Snow
7:56 PM 15.4 °F 8.1 °F 6.4 °F 68% 30.27 in 10.0 mi West 4.6 mph - N/A   Overcast
8:16 PM 15.3 °F 4.4 °F 5.9 °F 67% 30.27 in 10.0 mi West 8.1 mph - N/A   Overcast
8:36 PM 13.8 °F 3.7 °F 5.4 °F 69% 30.28 in 10.0 mi West 6.9 mph - N/A   Mostly Cloudy
8:56 PM 12.2 °F 1.7 °F 4.6 °F 72% 30.28 in 10.0 mi West 6.9 mph - N/A   Scattered Clouds
9:16 PM 11.7 °F 1.1 °F 4.6 °F 73% 30.28 in 10.0 mi West 6.9 mph - N/A   Clear
9:36 PM 11.1 °F 1.7 °F 4.5 °F 75% 30.29 in 10.0 mi West 5.8 mph - N/A   Clear
9:56 PM 10.2 °F 3.8 °F 4.1 °F 76% 30.29 in 10.0 mi West 3.5 mph - N/A   Clear
10:16 PM 8.4 °F - 3.2 °F 79% 30.30 in 10.0 mi Calm Calm - N/A   Clear
10:36 PM 8.1 °F 1.4 °F 3.9 °F 83% 30.30 in 10.0 mi WSW 3.5 mph - N/A   Mostly Cloudy
10:56 PM 7.7 °F 1.0 °F 3.6 °F 83% 30.30 in 10.0 mi WSW 3.5 mph - N/A   Overcast
11:16 PM 9.9 °F 3.4 °F 4.5 °F 79% 30.30 in 10.0 mi WSW 3.5 mph - N/A   Overcast
11:36 PM 8.8 °F - 3.6 °F 79% 30.30 in 10.0 mi Calm Calm - N/A   Overcast
11:56 PM 9.5 °F 3.0 °F 4.1 °F 79% 30.30 in 10.0 mi WSW 3.5 mph - N/A   Overcast